sat.trackr.live / text

‹ back to catalog

STARLINK-31942

NORAD 59899 · 2024-100Q

PAYLOAD ACTIVE UNKNOWN

§ Identity

Operator
Country
US
Launch date
2024-05-28
Launch site
AFETR
Launch vehicle
Mass (kg)
RCS (m²)

Purposes: comms

External: N2YO · Heavens-Above · Gunter

§ Orbital elements

Epoch: 2026-05-25T03:48:51.576192Z

Period
94.27 min
Inclination
43.0010°
Eccentricity
0.0001078
Mean motion
15.27580865 rev/d
Perigee alt
482.3 km
Apogee alt
483.8 km
Semi-major
6,861.2 km
B*
3.0610e-5
RAAN
53.3831°
Arg perigee
267.3083°
Mean anomaly
92.7645°
Rev number
11,284

§ Raw data

STARLINK-319421 59899U 24100Q   26145.15893028  .00000580  00000+0  30610-4 0  99972 59899  43.0010  53.3831 0001078 267.3083  92.7645 15.27580865112844

JSON: /api/v1/satellites/59899 · /tle

For live sub-satellite position, see the globe view (requires WebGL).

§ Visibility from observer

Set your observer location to see the next 7 days of passes ≥ 10°. The values pass through the URL so the page stays shareable.

No JS? Fill the form by hand. The geolocation button needs JavaScript.